Flag for Norway Weather past 2 weeks in Sarpsborg, Norway

Now
34 °F

Clear.


Feels Like: 30 °F
Forecast: 28 / 38 °F
Wind: 5 mph from North

Location: Rygge

Current Time: Dec 20, 2014 at 5:01:30 PM

Latest Report: Dec 20, 2014 at 4:20 PM


Visibility: 10 mi

Pressure: 29.36 "Hg

Humidity: 70%

Dew point: 25 °F

Location of SarpsborgLocation

Historic Weather in Sarpsborg — Graph

°F

Sarpsborg temperature yesterday

Maximum temperature yesterday: 39 °F (at 12:20 AM)
Minimum temperature yesterday: 32 °F (at 5:50 PM)
Average temperature yesterday: 36 °F

Past Weeks' High & Low Weather Summary

 TemperatureHumidityPressure
High46 °F (Dec 7, 10:50 AM)100% (Dec 5, 3:20 PM)30.01 "Hg (Dec 5, 3:20 PM)
Low21 °F (Dec 17, 8:50 AM)60% (Dec 16, 12:50 AM)29.00 "Hg (Dec 12, 5:20 PM)
Average35 °F88%29.40 "Hg
* Reported Dec 5 3:20 PM — Dec 20 3:50 PM, Sarpsborg, Weather by CustomWeather, © 2014

Note: Actual official high and low records may vary slightly from our data, if they occured in-between our weather recording intervals... More about our weather records

Advertising

Sarpsborg weather history for previous 24 hours

 ConditionsComfort  
Time TempWeatherWind HumidityBarometerVisibility
3:50 PM
Dec 20
34 °FClear.3 mph70%29.33 "Hg10 mi
3:20 PM36 °FPassing clouds.3 mph70%29.30 "HgN/A
2:50 PM36 °FSunny.7 mph75%29.30 "Hg10 mi
2:20 PM34 °FSunny.6 mph87%29.27 "Hg10 mi
1:50 PM34 °FSunny.5 mph81%29.27 "Hg10 mi
1:20 PM34 °FPassing clouds.3 mph81%29.24 "HgN/A
12:50 PM34 °FPassing clouds.6 mph87%29.21 "HgN/A
12:20 PM34 °FPassing clouds.5 mph87%29.21 "HgN/A
11:50 AM34 °FSunny.9 mph87%29.18 "Hg10 mi
11:20 AM34 °FSunny.8 mph87%29.18 "Hg10 mi
10:50 AM36 °FSunny.9 mph81%29.18 "Hg10 mi
10:20 AM34 °FSunny.7 mph87%29.18 "Hg10 mi
9:50 AM34 °FSunny.5 mph87%29.18 "Hg10 mi
8:50 AM34 °FClear.7 mph87%29.15 "Hg10 mi
8:20 AM34 °FClear.6 mph87%29.15 "Hg10 mi
7:50 AM36 °FPassing clouds.7 mph81%29.15 "HgN/A
7:20 AM36 °FPassing clouds.3 mph81%29.15 "HgN/A
6:50 AM36 °FClear.8 mph81%29.15 "Hg10 mi
6:20 AM36 °FClear.8 mph81%29.15 "Hg10 mi
5:50 AM36 °FClear.9 mph81%29.15 "Hg10 mi
5:20 AM36 °FPassing clouds.8 mph81%29.15 "HgN/A
4:50 AM34 °FPassing clouds.8 mph87%29.15 "HgN/A
4:20 AM36 °FPassing clouds.5 mph81%29.15 "HgN/A
3:50 AM36 °FPassing clouds.7 mph81%29.15 "HgN/A
3:20 AM36 °FPassing clouds.9 mph81%29.15 "HgN/A
2:50 AM36 °FChilly.9 mph81%29.15 "HgN/A
2:20 AM36 °FPassing clouds.9 mph81%29.15 "HgN/A
1:50 AM36 °FChilly.10 mph81%29.15 "HgN/A
1:20 AM36 °FPassing clouds.8 mph81%29.15 "HgN/A
12:50 AM36 °FChilly.6 mph81%29.15 "HgN/A
12:20 AM36 °FChilly.6 mph81%29.15 "HgN/A
11:50 PM
Dec 19
36 °FChilly.6 mph81%29.15 "HgN/A
11:20 PM36 °FChilly.8 mph81%29.15 "HgN/A
10:50 PM36 °FPassing clouds.5 mph81%29.15 "HgN/A
9:50 PM36 °FPassing clouds.12 mph81%29.12 "HgN/A
9:20 PM34 °FPassing clouds.6 mph87%29.12 "HgN/A
8:50 PM34 °FClear.8 mph87%29.12 "Hg10 mi
8:20 PM36 °FClear.14 mph81%29.12 "Hg10 mi
7:50 PM36 °FClear.8 mph75%29.09 "Hg10 mi
7:20 PM36 °FClear.12 mph81%29.12 "Hg10 mi
6:50 PM36 °FClear.12 mph81%29.12 "Hg10 mi
6:20 PM36 °FClear.9 mph81%29.09 "Hg10 mi
5:50 PM32 °FClear.5 mph93%29.09 "Hg10 mi
5:20 PM36 °FClear.2 mph81%29.09 "Hg10 mi
Weather by CustomWeather, © 2014

See weather overviewHow to use our weather pages